[[{"header":{"parameterUnit":"m.s-1","parameterCategory":1,"la1":30.2991,"la2":30.254,"lo1":-89.0895,"lo2":-89.0444,"dy":0.0017,"dx":0.0017,"nx":28,"ny":28,"refTime":"2023-10-23T09:00:00:Z","depth":0,"parameterNumber":2,"parameterNumberName":"U-component_of_WINDS"},"data":[0,0,0,0,0,0,0,0,0,0,0,0,0,0,0,0,0,0,0,0,0,0,0,0,0,0,0,0,0,0,0,0,0,0,0,0,0,0,0,0,0,0,0,0,0,0,0,0,0,0,0,0,0,0,0,0,0,0,-6.7872,-6.7873,0,-6.7968,-6.7969,-6.797,-6.7883,-6.788,-6.7876,-6.7873,-6.7972,-6.7977,-6.7983,0,0,0,0,0,0,0,0,0,0,0,0,0,-6.7617,-6.7622,-6.7872,-6.7873,-6.7874,-6.7967,-6.7969,-6.797,-6.7884,-6.788,-6.7875,-6.7871,-6.797,-6.7977,-6.7984,0,0,0,0,0,0,0,0,0,0,0,0,0,-6.7722,-6.7624,-6.7872,-6.7843,-6.7841,-6.7967,-6.7969,-6.797,-6.7885,-6.788,-6.7874,-6.7869,-6.7967,-6.7976,-6.7985,-6.8145,0,0,-6.8012,-6.8015,0,0,0,0,0,0,0,0,-6.7716,-6.7731,-6.7846,-6.7845,-6.7843,-6.7908,-6.7915,-6.8029,-6.7886,-6.7868,-6.7873,-6.7867,-6.7955,-6.7964,-6.7994,-6.8149,-6.8153,-6.8012,-6.8018,-6.8022,-6.8024,0,0,0,0,0,0,0,-6.7709,-6.7727,-6.791,-6.7847,-6.7846,-6.7826,-6.7835,-6.7936,-6.794,-6.7869,-6.7863,-6.7876,-6.7953,-6.7985,-6.7995,-6.8155,-6.8012,-6.802,-6.8025,-6.8029,-6.8449,-6.8455,0,0,0,0,0,0,-6.7705,-6.7721,-6.7907,-6.7913,-6.7765,-6.7834,-6.7845,-6.7893,-6.7938,-6.794,-6.788,-6.7871,-6.7973,-6.7985,-6.7999,-6.819,-6.8021,-6.803,-6.8035,-6.8443,-6.845,-6.8457,0,0,0,0,0,0,-6.77,-6.7722,-6.7903,-6.7815,-6.7837,-6.7844,-6.7899,-6.7897,-6.7929,-6.7947,-6.7947,-6.7912,-6.7969,-6.7986,-6.8109,-6.8192,-6.8034,-6.8042,-6.8436,-6.8445,-6.8454,-6.8573,0,0,0,0,0,0,-6.7693,-6.7721,-6.7781,-6.7817,-6.7842,-6.8011,-6.7904,-6.7903,-6.7945,-6.7934,-6.7977,-6.7979,-6.7966,-6.8097,-6.8118,-6.8201,-6.8049,-6.8429,-6.844,-6.8451,-6.8562,-6.8585,-6.8605,0,0,0,0,0,-6.7684,-6.781,-6.7784,-6.7807,-6.7917,-6.8016,-6.803,-6.8013,-6.7952,-6.8013,-6.8024,-6.7978,-6.818,-6.811,-6.8134,-6.822,-6.8424,-6.8437,-6.845,-6.8552,-6.858,-6.8604,0,0,0,0,0,0,-6.7781,-6.7814,-6.7786,-6.7927,-6.797,-6.8001,-6.8077,-6.8043,-6.8104,-6.8091,-6.8068,-6.8078,-6.8209,-6.8227,-6.8148,-6.8379,-6.8292,-6.8311,-6.8362,-6.8389,-6.841,-6.8402,-6.8056,0,0,0,0,0,-6.782,-6.7897,-6.7922,-6.8045,-6.8068,-6.807,-6.8112,-6.8095,-6.8138,-6.8156,-6.8176,-6.822,-6.8294,-6.8342,-6.8411,-6.8565,-6.8574,-6.8637,-6.8658,-6.8676,-6.8691,-6.8776,-6.8805,-6.85,-6.85,-6.85,0,0,-6.7899,-6.7927,-6.7977,-6.8065,-6.8096,-6.8178,-6.8085,-6.8174,-6.8235,-6.8169,-6.8287,-6.8304,-6.8352,-6.8492,-6.8554,-6.8511,-6.8778,-6.8693,-6.8706,-6.8713,-6.8793,-6.8821,-6.8847,-6.8509,-6.8507,-6.8506,0,0,-6.8085,-6.8114,-6.8219,-6.8253,-6.8302,-6.8303,-6.8329,-6.8367,-6.8376,-6.8494,-6.8447,-6.852,-6.8646,-6.8683,-6.8718,-6.8923,-6.8883,-6.8946,-6.9057,-6.914,-6.9164,-6.9185,-6.9259,-6.9285,-6.8962,-6.8963,-6.8963,0,-6.8177,-6.8297,-6.8278,-6.8372,-6.8413,-6.8359,-6.8467,-6.8501,-6.857,-6.86,-6.8551,-6.8711,-6.8739,-6.8888,-6.8938,-6.8968,-6.8998,-6.894,-6.9162,-6.9183,-6.9203,-6.9272,-6.93,-6.897,-6.8969,-6.8968,-6.8968,0,-6.8409,-6.8494,-6.8574,-6.8642,-6.8693,-6.8793,-6.8791,-6.8844,-6.8825,-6.8832,-6.8954,-6.8987,-6.9062,-6.9097,-6.9078,-6.9244,-6.9215,-6.9165,-6.9077,-6.9239,-6.9305,-6.9331,-6.898,-6.8978,-6.8976,-6.8974,0,0,-6.8655,-6.8714,-6.8744,-6.8775,-6.8827,-6.8893,-6.8993,-6.9067,-6.9113,-6.9164,-6.9247,-6.9358,-6.9313,-6.9353,-6.9339,-6.9412,-6.9573,-6.9353,-6.9354,-6.9392,-6.9759,-6.9796,-6.9827,-6.9548,-6.9553,-6.9557,-6.9755,0,-6.8842,-6.9014,-6.9002,-6.9165,-6.9244,-6.9196,-6.9283,-6.9325,-6.9336,-6.9405,-6.9417,-6.9496,-6.943,-6.9454,-6.9524,-6.9539,-6.9646,-6.9525,-6.9626,-6.963,-6.9614,-6.9861,-6.9899,-7.0084,-6.978,-6.9785,-6.9788,0,-6.9082,-6.9143,-6.9314,-6.9356,-6.9389,-6.9467,-6.9535,-6.9602,-6.965,-6.9653,-6.97,-6.9675,-6.9777,-6.9689,-6.983,-6.9747,-6.9789,-6.9803,-6.981,-6.9817,-6.9717,-6.9874,-7.0142,-7.017,-6.9828,-6.9825,-6.9822,0,-6.9244,-6.9368,-6.9487,-6.9516,-6.9568,-6.9625,-6.9649,-6.9692,-6.9739,-6.9799,-6.9829,-6.9901,-6.994,-6.9998,-6.9993,-6.9929,-7.0137,-7.0048,-7.0143,-7.0143,-7.0186,-7.0183,-7.0464,-7.0216,-7.0216,-7.0215,-7.0214,0,-6.9454,-6.956,-6.9561,-6.9634,-6.9752,-6.9739,-6.9857,-6.9876,-6.9915,-6.9992,-6.9956,-7.0029,-7.0019,-7.0093,-7.0091,-7.0209,-7.0227,-7.0233,-7.023,-7.0235,-7.0234,-7.026,-7.0247,-7.0222,-7.0221,-7.0219,-7.0218,0,-6.9653,-6.9658,-6.9784,-6.9825,-6.9838,-6.9924,-6.9959,-7.0029,-7.0038,-7.0136,-7.0158,-7.0172,-7.0258,-7.026,-7.0358,-7.0356,-7.05,-7.0484,-7.0484,-7.048,-7.0575,-7.0566,-7.0881,-7.0922,-7.0648,-7.0651,-7.0653,0,-6.9785,-6.9866,-6.9917,-6.9966,-6.9994,-7.0074,-7.0121,-7.0113,-7.0164,-7.0227,-7.029,-7.0373,-7.0437,-7.0577,-7.0597,-7.0672,-7.0657,-7.0763,-7.0668,-7.0671,-7.0658,-7.0653,-7.0661,-7.078,-7.0783,-7.0786,-7.0788,0,-7.0019,-7.0019,-7.0089,-7.0161,-7.022,-7.0276,-7.0328,-7.0371,-7.0369,-7.0429,-7.0516,-7.0567,-7.0669,-7.0751,-7.0826,-7.0852,-7.0821,-7.0818,-7.0844,-7.0848,-7.0844,-7.0848,-7.0533,-7.081,-7.0808,-7.0806,-7.0805,-7.0804,-7.0188,-7.0259,-7.0306,-7.0387,-7.0426,-7.0476,-7.0545,-7.0564,-7.0636,-7.0718,-7.0709,-7.0807,-7.0856,-7.0953,-7.0986,-7.1063,-7.1027,-7.1064,-7.1073,-7.1082,-7.1092,-7.0834,-7.1077,-7.1076,-7.1076,-7.1075,-7.1075,0,-7.042,-7.0449,-7.0524,-7.0599,-7.0663,-7.0629,-7.0686,-7.0742,-7.0828,-7.0877,-7.0943,-7.1045,-7.1126,-7.1154,-7.1233,-7.129,-7.1278,-7.1311,-7.1306,-7.1313,-7.112,-7.109,-7.132,-7.132,-7.132,-7.132,-7.132,-7.132,-7.0548,-7.0666,-7.0672,-7.081,-7.0838,-7.0934,-7.097,-7.1017,-7.1056,-7.1172,-7.1239,-7.1257,-7.1299,-7.1381,-7.1455,-7.1461,-7.1492,-7.1531,-7.1532,-7.1351,-7.1326,-7.1302,-7.1274,-7.1538,-7.1539,-7.1717,-7.1719,-7.172]},{"header":{"parameterUnit":"m.s-1","parameterCategory":1,"la1":30.2991,"la2":30.254,"lo1":-89.0895,"lo2":-89.0444,"dy":0.0017,"dx":0.0017,"nx":28,"ny":28,"refTime":"2023-10-23T09:00:00:Z","depth":0,"parameterNumber":3,"parameterNumberName":"V-component_of_WINDS"},"data":[0,0,0,0,0,0,0,0,0,0,0,0,0,0,0,0,0,0,0,0,0,0,0,0,0,0,0,0,0,0,0,0,0,0,0,0,0,0,0,0,0,0,0,0,0,0,0,0,0,0,0,0,0,0,0,0,0,0,0.6895,0.6895,0,0.6948,0.6949,0.6949,0.6975,0.6975,0.6975,0.6975,0.7029,0.703,0.7031,0,0,0,0,0,0,0,0,0,0,0,0,0,0.6816,0.6817,0.6895,0.6895,0.6896,0.6948,0.6949,0.695,0.6975,0.6975,0.6975,0.6975,0.7028,0.703,0.7032,0,0,0,0,0,0,0,0,0,0,0,0,0,0.6858,0.6817,0.6894,0.6915,0.6917,0.6948,0.6949,0.695,0.6975,0.6975,0.6975,0.6975,0.7028,0.703,0.7032,0.7046,0,0,0.7038,0.7039,0,0,0,0,0,0,0,0,0.6855,0.686,0.6911,0.6913,0.6916,0.6955,0.6941,0.6982,0.6975,0.6953,0.6975,0.6975,0.7004,0.7008,0.7018,0.7049,0.7051,0.7039,0.704,0.7041,0.7042,0,0,0,0,0,0,0,0.6852,0.6858,0.6916,0.6912,0.6915,0.6922,0.6928,0.6949,0.6978,0.6955,0.6957,0.6963,0.7005,0.7016,0.702,0.7052,0.7039,0.7041,0.7042,0.7043,0.7101,0.7101,0,0,0,0,0,0,0.6846,0.6856,0.6914,0.6917,0.6885,0.6923,0.693,0.6942,0.6978,0.6983,0.6963,0.6964,0.7012,0.7017,0.7022,0.7044,0.7041,0.7043,0.7044,0.7101,0.7101,0.7101,0,0,0,0,0,0,0.6844,0.6851,0.6912,0.6887,0.6896,0.6925,0.6939,0.6944,0.6954,0.6984,0.6989,0.6968,0.7012,0.7019,0.7041,0.7046,0.7044,0.7046,0.71,0.7101,0.7101,0.7086,0,0,0,0,0,0,0.6842,0.685,0.6855,0.6887,0.6897,0.693,0.6939,0.6945,0.6958,0.696,0.699,0.6995,0.7013,0.7038,0.7043,0.7049,0.7048,0.71,0.7101,0.7101,0.7086,0.7085,0.7085,0,0,0,0,0,0.6839,0.6848,0.6855,0.6862,0.6904,0.693,0.6935,0.6955,0.6958,0.6964,0.6984,0.6995,0.7044,0.704,0.7046,0.7052,0.71,0.71,0.7101,0.7086,0.7085,0.7085,0,0,0,0,0,0,0.6814,0.6852,0.6861,0.688,0.6902,0.6934,0.6942,0.6954,0.6974,0.6975,0.6999,0.7006,0.7027,0.7042,0.7036,0.707,0.7073,0.7075,0.706,0.7059,0.7059,0.7055,0.7049,0,0,0,0,0,0.6811,0.6829,0.6861,0.6875,0.6886,0.6912,0.6924,0.6938,0.6961,0.697,0.6991,0.7013,0.7035,0.7048,0.7068,0.7088,0.7097,0.7096,0.7095,0.7095,0.7096,0.7112,0.7112,0.7103,0.7103,0.7103,0,0,0.6805,0.6828,0.6837,0.6871,0.6889,0.6908,0.6919,0.6938,0.6953,0.6973,0.6996,0.7013,0.7039,0.7061,0.7072,0.7074,0.7101,0.7096,0.7095,0.7097,0.7112,0.7113,0.7114,0.7103,0.7103,0.7103,0,0,0.6803,0.6821,0.6836,0.6855,0.6884,0.6902,0.6906,0.6937,0.6949,0.6973,0.699,0.7008,0.7042,0.7062,0.7076,0.7086,0.7097,0.7092,0.709,0.7104,0.7105,0.7106,0.7112,0.7113,0.7093,0.7093,0.7093,0,0.6791,0.682,0.6842,0.6862,0.6877,0.6898,0.6915,0.6932,0.6965,0.6976,0.6978,0.7025,0.7043,0.7072,0.7075,0.7085,0.7092,0.7088,0.7103,0.7104,0.7105,0.7111,0.7113,0.7092,0.7092,0.7092,0.7092,0,0.6806,0.6826,0.6835,0.6868,0.6885,0.6902,0.6929,0.6943,0.6956,0.6975,0.7,0.7024,0.7052,0.706,0.7072,0.7091,0.7092,0.7098,0.7102,0.7105,0.7111,0.7113,0.7091,0.7091,0.7092,0.7092,0,0,0.6788,0.6836,0.6839,0.6856,0.6891,0.6907,0.6927,0.6955,0.6968,0.6991,0.7009,0.704,0.7047,0.7064,0.7079,0.7091,0.7101,0.7097,0.7098,0.7098,0.7127,0.7123,0.7125,0.7109,0.7109,0.711,0.7125,0,0.6792,0.6829,0.6851,0.6879,0.6899,0.6921,0.6939,0.6963,0.6981,0.7002,0.7022,0.7045,0.7051,0.7062,0.7075,0.7097,0.7107,0.7096,0.7128,0.7129,0.7122,0.7128,0.7123,0.7137,0.7128,0.7128,0.7128,0,0.6801,0.6826,0.6856,0.6892,0.6902,0.6917,0.6947,0.6965,0.6994,0.7007,0.7027,0.7043,0.7067,0.7069,0.7103,0.7094,0.7109,0.7122,0.7123,0.7128,0.7129,0.7134,0.7141,0.7144,0.7132,0.7132,0.7131,0,0.6788,0.6829,0.6853,0.6867,0.6908,0.6919,0.6937,0.6966,0.6982,0.7008,0.702,0.7047,0.7063,0.7085,0.7109,0.7107,0.7141,0.7144,0.7154,0.7154,0.716,0.716,0.7171,0.7167,0.7167,0.7167,0.7167,0,0.6791,0.6809,0.6848,0.6863,0.6885,0.6912,0.6933,0.6953,0.6979,0.6999,0.7019,0.7038,0.7068,0.7091,0.711,0.7137,0.7143,0.7155,0.716,0.7154,0.7153,0.7165,0.7165,0.7168,0.7168,0.7168,0.7167,0,0.6779,0.6806,0.6835,0.6873,0.6883,0.6898,0.6931,0.6947,0.6968,0.6994,0.7002,0.7034,0.7063,0.7089,0.7126,0.7139,0.7167,0.7172,0.7158,0.7161,0.717,0.717,0.719,0.7196,0.7186,0.7186,0.7186,0,0.678,0.6795,0.6836,0.6852,0.687,0.6894,0.6912,0.694,0.6958,0.6994,0.7006,0.7037,0.7062,0.7107,0.7135,0.7164,0.7172,0.7177,0.7176,0.7171,0.7174,0.7174,0.7177,0.7177,0.7177,0.7177,0.7177,0,0.6779,0.6792,0.6818,0.6849,0.687,0.6896,0.6922,0.6933,0.6966,0.6986,0.7016,0.7037,0.7077,0.7107,0.7141,0.716,0.7175,0.7177,0.7181,0.7176,0.7168,0.7175,0.7159,0.7176,0.7176,0.7176,0.7176,0.7176,0.6775,0.6791,0.6823,0.6852,0.6875,0.69,0.6918,0.6943,0.6968,0.7004,0.7019,0.705,0.7082,0.7129,0.7148,0.7174,0.7177,0.7182,0.7184,0.7185,0.7186,0.7163,0.718,0.718,0.718,0.718,0.718,0,0.6777,0.68,0.6826,0.6863,0.6886,0.6899,0.693,0.6949,0.6976,0.7005,0.7031,0.7068,0.7099,0.713,0.7163,0.7178,0.7185,0.7186,0.7185,0.719,0.718,0.7174,0.7179,0.7179,0.7179,0.7179,0.7179,0.7179,0.678,0.6809,0.6827,0.6868,0.6891,0.6923,0.694,0.6964,0.6987,0.7028,0.7054,0.7075,0.7105,0.7141,0.7171,0.718,0.7192,0.719,0.7201,0.7191,0.719,0.719,0.7185,0.7192,0.7192,0.721,0.721,0.721]}]]